Date String (YYYY-MM-DD hh:mm:ss) UTC,Instrument flags,Ambient pressure (hPa),Sample flow (lpm),Bypass flow (lpm),Sample temperature (°C),Ambient temperature (°C),ASC tube jacket temperature (°C),LED temperature (°C),Box temperature (°C),Sample RH (%),Span deviation,Mass concentration (μg/m³),Mass concentration (μg/m³),Mass concentration (μg/m³)
DateTimeUTC,F1_M11,P_M11,Q1_M11,Q2_M11,T1_M11,T2_M11,T3_M11,T4_M11,T5_M11,U1_M11,ZSPAN_M11,X0_M11,X2_M11,X1_M11
2023-01-21 00:00:00,,0826.0,4.99,0.00,23.4,21.9,00.0,32.1,25.2,08.4,0000.0,0010.63,0005.99,0005.55
2023-01-21 00:01:00,,0826.0,5.00,0.00,23.3,22.0,00.0,32.1,25.2,08.4,0000.0,0010.63,0006.00,0005.57
2023-01-21 00:02:00,,0826.0,4.99,0.00,23.3,22.0,00.0,32.1,25.1,08.4,0000.0,0010.61,0006.02,0005.59
2023-01-21 00:03:00,,0826.0,4.99,0.00,23.3,21.9,00.0,32.1,25.1,08.4,0000.0,0010.66,0006.03,0005.60
2023-01-21 00:04:00,,0826.0,5.00,0.00,23.3,21.9,00.0,32.1,25.1,08.4,0000.0,0009.96,0005.99,0005.59
2023-01-21 00:05:00,,0826.0,5.00,0.00,23.3,21.9,00.0,32.1,25.1,08.4,0000.0,0010.03,0005.95,0005.58
2023-01-21 00:06:00,,0826.0,5.00,0.00,23.3,21.9,00.0,32.1,25.1,08.4,0000.0,0010.33,0005.91,0005.58
2023-01-21 00:07:00,,0826.0,4.99,0.00,23.3,21.9,00.0,32.1,25.1,08.4,0000.0,0010.30,0005.92,0005.59
2023-01-21 00:08:00,,0826.0,5.00,0.00,23.3,21.9,00.0,32.1,25.1,08.4,0000.0,0010.84,0005.93,0005.59
2023-01-21 00:09:00,,0826.0,4.99,0.00,23.3,21.9,00.0,32.1,25.1,08.3,0000.0,0010.62,0005.87,0005.53
2023-01-21 00:10:00,,0826.0,4.99,0.00,23.3,21.9,00.0,32.1,25.1,08.3,0000.0,0010.48,0005.81,0005.48
2023-01-21 00:11:00,,0826.0,5.01,0.00,23.3,21.9,00.0,32.1,25.1,08.4,0000.0,0010.89,0005.82,0005.48
2023-01-21 00:12:00,,0826.0,5.00,0.00,23.3,21.9,00.0,32.1,25.1,08.3,0000.0,0011.04,0005.79,0005.44
2023-01-21 00:13:00,,0826.0,5.00,0.00,23.3,21.9,00.0,32.1,25.1,08.3,0000.0,0010.99,0005.72,0005.37
2023-01-21 00:14:00,,0826.0,5.00,0.00,23.3,21.9,00.0,32.1,25.1,08.3,0000.0,0011.54,0005.67,0005.34
2023-01-21 00:15:00,,0826.0,4.99,0.00,23.3,21.9,00.0,32.1,25.1,08.2,0000.0,0011.64,0005.62,0005.29
2023-01-21 00:16:00,,0826.0,4.99,0.00,23.3,21.9,00.0,32.1,25.1,08.2,0000.0,0011.21,0005.59,0005.26
2023-01-21 00:17:00,,0826.0,5.01,0.00,23.3,21.9,00.0,32.1,25.1,08.2,0000.0,0010.54,0005.52,0005.19
2023-01-21 00:18:00,,0826.0,4.99,0.00,23.3,21.9,00.0,32.0,25.1,08.2,0000.0,0010.33,0005.46,0005.13
2023-01-21 00:19:00,,0826.0,5.00,0.00,23.3,21.9,00.0,32.0,25.1,08.2,0000.0,0009.72,0005.37,0005.05
2023-01-21 00:20:00,,0826.0,4.99,0.00,23.2,21.9,00.0,32.0,25.1,08.1,0000.0,0009.49,0005.34,0004.99
2023-01-21 00:21:00,,0826.0,5.01,0.00,23.2,21.9,00.0,32.0,25.0,08.2,0000.0,0009.41,0005.26,0004.93
2023-01-21 00:22:00,,0826.0,4.99,0.00,23.2,21.9,00.0,32.0,25.0,08.2,0000.0,0008.88,0005.14,0004.83
2023-01-21 00:23:00,,0826.1,5.00,0.00,23.2,21.9,00.0,32.0,25.0,08.2,0000.0,0008.50,0005.04,0004.74
2023-01-21 00:24:00,,0826.1,5.01,0.00,23.2,21.8,00.0,32.0,25.0,08.2,0000.0,0008.36,0004.98,0004.71
2023-01-21 00:25:00,,0826.1,4.99,0.00,23.2,21.8,00.0,32.0,25.0,08.2,0000.0,0007.79,0004.94,0004.66
2023-01-21 00:26:00,,0826.1,4.97,0.00,23.2,21.8,00.0,32.0,25.0,08.2,0000.0,0007.52,0004.93,0004.64
2023-01-21 00:27:00,,0826.1,5.03,0.00,23.2,21.8,00.0,32.0,25.0,08.2,0000.0,0007.56,0004.94,0004.60
2023-01-21 00:28:00,,0826.1,4.98,0.00,23.2,21.8,00.0,32.0,25.0,08.1,0000.0,0007.49,0004.91,0004.57
2023-01-21 00:29:00,,0826.2,5.01,0.00,23.2,21.8,00.0,32.0,25.0,08.2,0000.0,0007.82,0004.89,0004.55
2023-01-21 00:30:00,,0826.2,5.02,0.00,23.2,21.8,00.0,32.0,25.0,08.2,0000.0,0007.87,0004.89,0004.55
2023-01-21 00:31:00,,0826.1,5.02,0.00,23.2,21.8,00.0,32.0,25.0,08.2,0000.0,0007.81,0004.89,0004.58
2023-01-21 00:32:00,,0826.1,5.03,0.00,23.2,21.8,00.0,32.0,25.0,08.2,0000.0,0007.85,0004.92,0004.60
2023-01-21 00:33:00,,0826.1,5.03,0.00,23.2,21.8,00.0,32.0,25.0,08.2,0000.0,0007.90,0004.96,0004.64
2023-01-21 00:34:00,,0826.1,4.97,0.00,23.2,21.8,00.0,32.0,25.0,08.2,0000.0,0008.00,0005.00,0004.67
2023-01-21 00:35:00,,0826.1,5.01,0.00,23.2,21.8,00.0,32.0,25.0,08.2,0000.0,0008.16,0005.04,0004.71
2023-01-21 00:36:00,,0826.1,5.00,0.00,23.1,21.8,00.0,32.0,25.0,08.4,0000.0,0008.70,0005.10,0004.79
2023-01-21 00:37:00,,0826.1,5.00,0.00,23.1,21.8,00.0,31.9,25.0,08.4,0000.0,0008.84,0005.18,0004.86
2023-01-21 00:38:00,,0826.1,4.99,0.00,23.1,21.7,00.0,31.9,24.9,08.4,0000.0,0008.95,0005.21,0004.93
2023-01-21 00:39:00,,0826.1,5.01,0.00,23.1,21.7,00.0,31.9,24.9,08.4,0000.0,0009.04,0005.29,0005.03
2023-01-21 00:40:00,,0826.1,4.99,0.00,23.1,21.7,00.0,31.9,24.9,08.5,0000.0,0008.91,0005.41,0005.11
2023-01-21 00:41:00,,0826.1,5.00,0.00,23.1,21.7,00.0,31.9,24.9,08.5,0000.0,0009.03,0005.52,0005.22
2023-01-21 00:42:00,,0826.2,5.01,0.00,23.1,21.7,00.0,31.9,24.9,08.5,0000.0,0009.51,0005.66,0005.31
2023-01-21 00:43:00,,0826.2,5.01,0.00,23.1,21.7,00.0,31.9,24.9,08.5,0000.0,0009.73,0005.76,0005.42
2023-01-21 00:44:00,,0826.2,4.99,0.00,23.1,21.7,00.0,31.9,24.9,08.6,0000.0,0010.02,0005.88,0005.53
2023-01-21 00:45:00,,0826.2,5.00,0.00,23.1,21.7,00.0,31.9,24.9,08.6,0000.0,0010.17,0006.03,0005.65
2023-01-21 00:46:00,,0826.2,5.01,0.00,23.1,21.7,00.0,31.9,24.9,08.6,0000.0,0010.32,0006.16,0005.77
2023-01-21 00:47:00,,0826.2,5.00,0.00,23.1,21.7,00.0,31.9,24.9,08.6,0000.0,0009.96,0006.26,0005.82
2023-01-21 00:48:00,,0826.2,5.01,0.00,23.0,21.7,00.0,31.9,24.9,08.6,0000.0,0009.99,0006.28,0005.84
2023-01-21 00:49:00,,0826.1,5.00,0.00,23.0,21.7,00.0,31.8,24.9,08.6,0000.0,0009.90,0006.33,0005.91
2023-01-21 00:50:00,,0826.2,5.01,0.00,23.0,21.7,00.0,31.8,24.9,08.6,0000.0,0009.94,0006.36,0005.95
2023-01-21 00:51:00,,0826.1,4.99,0.00,23.0,21.7,00.0,31.8,24.9,08.6,0000.0,0010.08,0006.42,0005.99
2023-01-21 00:52:00,,0826.2,4.98,0.00,23.0,21.7,00.0,31.8,24.9,08.5,0000.0,0010.00,0006.41,0006.00
2023-01-21 00:53:00,,0826.2,5.00,0.00,23.0,21.6,00.0,31.8,24.8,08.5,0000.0,0009.62,0006.39,0005.99
2023-01-21 00:54:00,,0826.2,4.98,0.00,23.0,21.6,00.0,31.8,24.8,08.5,0000.0,0009.57,0006.37,0005.98
2023-01-21 00:55:00,,0826.2,4.99,0.00,23.0,21.6,00.0,31.8,24.8,08.6,0000.0,0009.49,0006.42,0006.01
2023-01-21 00:56:00,,0826.2,5.00,0.00,23.0,21.6,00.0,31.8,24.8,08.7,0000.0,0009.66,0006.48,0006.06
2023-01-21 00:57:00,,0826.2,4.99,0.00,23.0,21.6,00.0,31.8,24.8,08.8,0000.0,0010.01,0006.63,0006.17
2023-01-21 00:58:00,,0826.2,5.01,0.00,23.0,21.6,00.0,31.8,24.8,08.8,0000.0,0010.48,0006.73,0006.27
2023-01-21 00:59:00,,0826.2,4.99,0.00,23.0,21.5,00.0,31.8,24.8,08.7,0000.0,0011.08,0006.83,0006.37
